Orr, MN

9:55 AM CST on November 21, 2017 (GMT -0600)
Orr Regional

Weather History for KORB - September, 2013

Change the Weather History Date:

Saturday, September 28, 2013

  Actual Average Record
Temperature  
Mean Temperature 58 °F -  
Max Temperature 71 °F 56 °F 80 °F (2011)
Min Temperature 44 °F 36 °F 26 °F (1999)
Degree Days  
Heating Degree Days 8    
Growing Degree Days 8 (Base 50)    
Moisture  
Dew Point 51 °F    
Average Humidity 77    
Maximum Humidity 94    
Minimum Humidity 60    
Precipitation  
Precipitation 0.20 in - - ()
Sea Level Pressure  
Sea Level Pressure 29.64 in    
Wind  
Wind Speed 10 mph (SSW)    
Max Wind Speed 17 mph    
Max Gust Speed 34 mph    
Visibility 9 miles    
Events Rain    
Averages and records for this station are not official NWS values.
T = Trace of Precipitation, MM = Missing Value Source: NWS Daily Summary

Daily Weather History Graph

Daily Weather History Graph

Search for Another Location

Airport or City:

Trip Planner

Search our weather history database for the weather conditions in past years. The results will help you decide how hot, cold, wet, or windy it might be!

Date:

Astronomy

Sep. 28, 2013 Rise Set
Actual Time 7:06 AM CDT 6:56 PM CDT
Civil Twilight 6:35 AM CDT 7:27 PM CDT
Nautical Twilight 5:59 AM CDT 8:03 PM CDT
Astronomical Twilight 5:22 AM CDT 8:40 PM CDT
Moon 12:31 AM CDT (9/28) 3:36 PM CDT (9/28)
Length of Visible Light 12h 51m
Length of Day
11h 49m
Waning Crescent, 36% of the Moon is Illuminated
Sep 28
Waning Crescent
Oct 4
New
Oct 11
First Quarter
Oct 18
Full
Oct 26
Last Quarter

Hourly Weather History & Observations

Time (CDT) Temp. Windchill Dew Point Humidity Pressure Visibility Wind Dir Wind Speed Gust Speed Precip Events Conditions
12:13 AM 71.6 °F - 57.2 °F 60% 29.74 in 10.0 mi South 9.2 mph 25.3 mph N/A   Unknown
12:33 AM 69.8 °F - 57.2 °F 64% 29.73 in 10.0 mi SSE 8.1 mph 18.4 mph N/A   Unknown
12:53 AM 69.8 °F - 57.2 °F 64% 29.74 in 10.0 mi South 10.4 mph 17.3 mph N/A   Unknown
1:13 AM 69.8 °F - 57.2 °F 64% 29.73 in 10.0 mi South 8.1 mph 16.1 mph N/A   Unknown
1:33 AM 69.8 °F - 57.2 °F 64% 29.73 in 10.0 mi SSE 11.5 mph - N/A   Unknown
1:53 AM 69.8 °F - 57.2 °F 64% 29.73 in 10.0 mi South 10.4 mph - N/A   Unknown
2:13 AM 69.8 °F - 57.2 °F 64% 29.72 in 10.0 mi South 8.1 mph 16.1 mph N/A   Unknown
2:33 AM 69.8 °F - 57.2 °F 64% 29.72 in 10.0 mi SSE 11.5 mph 17.3 mph N/A   Unknown
2:53 AM 69.8 °F - 57.2 °F 64% 29.72 in 10.0 mi South 6.9 mph - N/A   Unknown
3:13 AM 69.8 °F - 57.2 °F 64% 29.72 in 10.0 mi South 5.8 mph - N/A   Unknown
3:33 AM 68.0 °F - 57.2 °F 68% 29.71 in 10.0 mi SSE 5.8 mph - N/A   Unknown
3:53 AM 68.0 °F - 57.2 °F 68% 29.70 in 10.0 mi SSE 6.9 mph - N/A   Unknown
4:13 AM 68.0 °F - 57.2 °F 68% 29.69 in 10.0 mi SSE 6.9 mph - N/A   Unknown
4:33 AM 68.0 °F - 57.2 °F 68% 29.68 in 10.0 mi SSE 8.1 mph - N/A   Unknown
4:53 AM 68.0 °F - 57.2 °F 68% 29.67 in 10.0 mi SSE 8.1 mph - N/A   Unknown
5:13 AM 66.2 °F - 55.4 °F 68% 29.67 in 10.0 mi SSE 9.2 mph - N/A   Unknown
5:33 AM 66.2 °F - 55.4 °F 68% 29.66 in 10.0 mi SSE 11.5 mph 17.3 mph N/A   Unknown
5:53 AM 66.2 °F - 55.4 °F 68% 29.65 in 10.0 mi SSE 12.7 mph 20.7 mph N/A   Unknown
6:13 AM 66.2 °F - 55.4 °F 68% 29.65 in 10.0 mi SSE 12.7 mph - N/A   Unknown
6:33 AM 66.2 °F - 55.4 °F 68% 29.64 in 10.0 mi SSE 10.4 mph 17.3 mph N/A   Unknown
6:53 AM 66.2 °F - 55.4 °F 68% 29.63 in 10.0 mi SSE 11.5 mph 17.3 mph N/A   Unknown
7:13 AM 64.4 °F - 53.6 °F 68% 29.62 in 10.0 mi SE 11.5 mph 17.3 mph N/A   Unknown
7:33 AM 64.4 °F - 53.6 °F 68% 29.61 in 10.0 mi SE 12.7 mph 19.6 mph N/A   Unknown
7:53 AM 64.4 °F - 53.6 °F 68% 29.60 in 10.0 mi SE 13.8 mph 20.7 mph N/A   Unknown
8:13 AM 64.4 °F - 53.6 °F 68% 29.60 in 10.0 mi SSE 12.7 mph 18.4 mph N/A   Unknown
8:33 AM 64.4 °F - 53.6 °F 68% 29.59 in 10.0 mi SSE 13.8 mph 21.9 mph N/A   Unknown
8:53 AM 64.4 °F - 53.6 °F 68% 29.58 in 10.0 mi SSE 13.8 mph 20.7 mph N/A   Unknown
9:13 AM 64.4 °F - 53.6 °F 68% 29.57 in 10.0 mi SSE 12.7 mph 21.9 mph N/A   Unknown
9:33 AM 64.4 °F - 53.6 °F 68% 29.55 in 10.0 mi SSE 13.8 mph 20.7 mph N/A   Unknown
9:53 AM 66.2 °F - 53.6 °F 64% 29.54 in 10.0 mi SSE 12.7 mph 17.3 mph N/A   Unknown
10:13 AM 66.2 °F - 53.6 °F 64% 29.54 in 10.0 mi SSE 16.1 mph 28.8 mph N/A   Unknown
10:33 AM 64.4 °F - 55.4 °F 73% 29.53 in 10.0 mi SSE 11.5 mph 25.3 mph N/A   Drizzle
10:53 AM 62.6 °F - 55.4 °F 77% 29.53 in 7.0 mi SSE 12.7 mph 24.2 mph N/A Rain Light Rain
11:13 AM 60.8 °F - 57.2 °F 88% 29.51 in 10.0 mi SSE 15.0 mph 20.7 mph 0.02 in Rain Rain
11:33 AM 60.8 °F - 57.2 °F 88% 29.50 in 7.0 mi SSE 10.4 mph 17.3 mph 0.02 in Rain Light Rain
11:53 AM 60.8 °F - 57.2 °F 88% 29.49 in 7.0 mi SSE 10.4 mph 17.3 mph 0.02 in   Drizzle
12:13 PM 60.8 °F - 57.2 °F 88% 29.48 in 7.0 mi SSE 10.4 mph 25.3 mph 0.02 in Rain Light Rain
12:33 PM 60.8 °F - 57.2 °F 88% 29.47 in 4.0 mi SSE 11.5 mph 20.7 mph 0.02 in Rain Heavy Rain
12:53 PM 60.8 °F - 57.2 °F 88% 29.46 in 5.0 mi SSE 10.4 mph 19.6 mph 0.03 in Rain Heavy Rain
1:13 PM 60.8 °F - 57.2 °F 88% 29.45 in 5.0 mi SSE 11.5 mph 18.4 mph 0.01 in Rain Rain
1:33 PM 59.0 °F - 55.4 °F 88% 29.47 in 7.0 mi SW 10.4 mph 17.3 mph 0.06 in Rain Light Rain
1:53 PM 55.4 °F - 51.8 °F 88% 29.49 in 3.0 mi WSW 9.2 mph 20.7 mph 0.08 in   Heavy Drizzle
2:13 PM 53.6 °F - 50.0 °F 88% 29.51 in 5.0 mi West 9.2 mph 19.6 mph 0.03 in Rain Light Rain
2:33 PM 51.8 °F - 50.0 °F 94% 29.51 in 10.0 mi WSW 8.1 mph - 0.06 in Rain Light Rain
2:54 PM 51.8 °F - 48.2 °F 88% 29.51 in 10.0 mi SW 8.1 mph - 0.07 in Rain Rain
3:13 PM 51.8 °F - 48.2 °F 88% 29.53 in 10.0 mi WSW 10.4 mph 19.6 mph N/A   Drizzle
3:33 PM 51.8 °F - 48.2 °F 88% 29.55 in 7.0 mi WSW 10.4 mph 19.6 mph N/A   Unknown
3:53 PM 51.8 °F - 48.2 °F 88% 29.57 in 7.0 mi WSW 12.7 mph 19.6 mph N/A   Unknown
4:13 PM 51.8 °F - 48.2 °F 88% 29.59 in 4.0 mi West 17.3 mph 34.5 mph N/A Rain Rain
4:33 PM 51.8 °F - 46.4 °F 82% 29.59 in 10.0 mi West 11.5 mph 23.0 mph N/A   Unknown
4:53 PM 51.8 °F - 46.4 °F 82% 29.61 in 10.0 mi West 11.5 mph 16.1 mph N/A   Unknown
5:14 PM 51.8 °F - 46.4 °F 82% 29.62 in 10.0 mi West 9.2 mph 18.4 mph N/A   Unknown
5:33 PM 51.8 °F - 46.4 °F 82% 29.64 in 10.0 mi West 9.2 mph - N/A   Unknown
5:53 PM 50.0 °F - 44.6 °F 82% 29.65 in 10.0 mi West 6.9 mph - N/A   Unknown
6:13 PM 50.0 °F - 44.6 °F 82% 29.66 in 10.0 mi West 11.5 mph 18.4 mph N/A   Unknown
6:33 PM 50.0 °F - 44.6 °F 82% 29.67 in 10.0 mi West 9.2 mph 18.4 mph N/A   Unknown
6:53 PM 48.2 °F - 44.6 °F 87% 29.68 in 7.0 mi West 10.4 mph 21.9 mph N/A   Unknown
7:13 PM 48.2 °F - 44.6 °F 87% 29.69 in 7.0 mi West 10.4 mph - N/A Rain Light Rain
7:33 PM 48.2 °F - 44.6 °F 87% 29.70 in 10.0 mi West 10.4 mph 17.3 mph N/A   Unknown
7:53 PM 48.2 °F - 44.6 °F 87% 29.71 in 10.0 mi West 6.9 mph 21.9 mph N/A   Unknown
8:13 PM 48.2 °F - 44.6 °F 87% 29.72 in 10.0 mi West 9.2 mph - N/A   Unknown
8:33 PM 46.4 °F 41.5 °F 42.8 °F 87% 29.73 in 10.0 mi West 10.4 mph 18.4 mph N/A   Unknown
8:53 PM 46.4 °F 41.5 °F 41.0 °F 81% 29.74 in 10.0 mi West 10.4 mph - N/A   Unknown
9:13 PM 44.6 °F 39.2 °F 41.0 °F 87% 29.75 in 10.0 mi West 10.4 mph 17.3 mph N/A   Unknown
9:33 PM 46.4 °F 41.1 °F 41.0 °F 81% 29.76 in 10.0 mi West 11.5 mph 16.1 mph N/A   Unknown
9:53 PM 46.4 °F 41.9 °F 39.2 °F 76% 29.77 in 10.0 mi West 9.2 mph 16.1 mph N/A   Unknown
10:13 PM 46.4 °F 41.5 °F 39.2 °F 76% 29.78 in 10.0 mi West 10.4 mph 17.3 mph N/A   Unknown
10:33 PM 46.4 °F 42.4 °F 39.2 °F 76% 29.78 in 10.0 mi West 8.1 mph - N/A   Unknown
10:53 PM 46.4 °F 44.3 °F 41.0 °F 81% 29.79 in 10.0 mi WSW 4.6 mph - N/A   Unknown
11:13 PM 44.6 °F 43.1 °F 41.0 °F 87% 29.80 in 10.0 mi WSW 3.5 mph - N/A   Unknown
11:33 PM 44.6 °F - 41.0 °F 87% 29.80 in 10.0 mi Calm Calm - N/A   Unknown
11:53 PM 44.6 °F - 41.0 °F 87% 29.81 in 10.0 mi Calm Calm - N/A   Unknown